Retour au catalogue

STARLINK-32722

ActifCommunicationsVLEO
NORAD 62450·PAYLOAD·🇺🇸 United States

Lancé Dec 29, 2024 depuis Vandenberg Space Force Base

Loading…

Prochains Passages (prochaines 24 heures)

TLE

FraisSource: CelesTrak SupGP

Époque: Sep 15, 2026, 03:00 UTC

1 62450C 24251U   26258.12548611  .00028693  00000+0  84821-3 0  2583
2 62450  53.1577 172.7519 0001366  80.3997 116.4271 15.34359098    11

Suivez STARLINK-32722 en temps réel avec AllMySat

Download on the App Store